Weather History for KWST - December, 2013

Change the Weather History Date:

Sunday, December 22, 2013

  Actual Average (KGON) Record (KGON)
Temperature  
Mean Temperature 56 °F -  
Max Temperature 60 °F 40 °F 62 °F (2013)
Min Temperature 51 °F 24 °F -7 °F (1989)
Degree Days  
Heating Degree Days 10    
Growing Degree Days 6 (Base 50)    
Moisture  
Dew Point 53 °F    
Average Humidity 96    
Maximum Humidity 100    
Minimum Humidity 78    
Precipitation  
Precipitation 0.00 in - - ()
Sea Level Pressure  
Sea Level Pressure 29.92 in    
Wind  
Wind Speed 9 mph (SW)    
Max Wind Speed 16 mph    
Max Gust Speed 24 mph    
Visibility 4 miles    
Events Fog , Rain    
Averages and records for this station are not official NWS values.
T = Trace of Precipitation, MM = Missing Value Source: NWS Daily Summary

Daily Weather History Graph

Daily Weather History Graph

Search for Another Location

Airport or City:

Trip Planner

Search our weather history database for the weather conditions in past years. The results will help you decide how hot, cold, wet, or windy it might be!

Date:

Astronomy

Dec. 22, 2013 Rise Set
Actual Time 7:10 AM EST 4:21 PM EST
Civil Twilight 6:39 AM EST 4:53 PM EST
Nautical Twilight 6:04 AM EST 5:27 PM EST
Astronomical Twilight 5:30 AM EST 6:01 PM EST
Moon 9:34 PM EST (12/22) 10:02 AM EST (12/22)
Length of Visible Light 10h 14m
Length of Day
9h 11m
Waning Gibbous, 77% of the Moon is Illuminated
Dec 22
Waning Gibbous
Dec 25
Last Quarter
Jan 1
New
Jan 7
First Quarter
Jan 15
Full

Hourly Weather History & Observations

Time (EST) Temp. Dew Point Humidity Pressure Visibility Wind Dir Wind Speed Gust Speed Precip Events Conditions
12:53 AM 54.0 °F 52.0 °F 93% 29.94 in 7.0 mi SW 10.4 mph - N/A   Overcast
1:29 AM 54.0 °F 53.1 °F 97% 29.95 in 6.0 mi SW 8.1 mph - N/A   Overcast
1:50 AM 53.6 °F 53.6 °F 100% 29.93 in 6.0 mi SW 9.2 mph - N/A   Overcast
1:53 AM 54.0 °F 53.1 °F 97% 29.93 in 6.0 mi SW 9.2 mph - N/A   Overcast
2:02 AM 54.0 °F 53.1 °F 97% 29.93 in 6.0 mi SW 8.1 mph - N/A   Overcast
2:45 AM 53.1 °F 52.0 °F 96% 29.92 in 5.0 mi SW 5.8 mph - N/A   Overcast
2:53 AM 53.1 °F 52.0 °F 96% 29.92 in 5.0 mi SW 6.9 mph - N/A   Overcast
3:53 AM 53.1 °F 52.0 °F 96% 29.91 in 5.0 mi SW 3.5 mph - N/A   Overcast
4:51 AM 53.6 °F 53.6 °F 100% 29.89 in 6.0 mi SSW 12.7 mph 24.2 mph N/A   Overcast
4:53 AM 54.0 °F 53.1 °F 97% 29.88 in 6.0 mi SSW 12.7 mph 24.2 mph N/A   Overcast
5:53 AM 53.1 °F 53.1 °F 100% 29.91 in 6.0 mi SW 5.8 mph - 0.00 in   Overcast
6:33 AM 55.0 °F 54.0 °F 96% 29.87 in 3.0 mi SW 11.5 mph 18.4 mph 0.00 in   Overcast
6:53 AM 55.0 °F 55.0 °F 100% 29.88 in 5.0 mi South 9.2 mph - 0.00 in   Overcast
7:38 AM 55.9 °F 55.0 °F 97% 29.88 in 2.5 mi SW 6.9 mph - N/A   Overcast
7:49 AM 55.4 °F 53.6 °F 94% 29.90 in 1.2 mi SW 9.2 mph - 0.00 in Rain Light Rain
7:53 AM 54.0 °F 54.0 °F 100% 29.89 in 1.2 mi SSW 8.1 mph - 0.00 in Rain Light Rain
8:18 AM 55.0 °F 54.0 °F 96% 29.91 in 2.0 mi SW 9.2 mph - 0.00 in   Overcast
8:30 AM 55.0 °F 55.0 °F 100% 29.91 in 1.8 mi SW 6.9 mph 18.4 mph 0.00 in Rain Light Rain
8:37 AM 55.0 °F 55.0 °F 100% 29.92 in 2.5 mi SW 6.9 mph - 0.00 in   Overcast
8:53 AM 55.0 °F 55.0 °F 100% 29.92 in 2.0 mi SW 11.5 mph 16.1 mph 0.00 in   Overcast
9:18 AM 54.0 °F 54.0 °F 100% 29.92 in 0.8 mi SW 11.5 mph - N/A   Overcast
9:30 AM 53.1 °F 53.1 °F 100% 29.92 in 0.2 mi WSW 9.2 mph - N/A Fog Fog
9:43 AM 54.0 °F 54.0 °F 100% 29.93 in 1.0 mi SW 8.1 mph - N/A   Mist
9:53 AM 55.0 °F 55.0 °F 100% 29.93 in 1.8 mi SW 8.1 mph - N/A   Overcast
10:30 AM 54.0 °F 54.0 °F 100% 29.93 in 0.5 mi WSW 10.4 mph - N/A Fog Fog
10:40 AM 54.0 °F 54.0 °F 100% 29.93 in 0.2 mi WSW 11.5 mph - N/A Fog Fog
10:53 AM 54.0 °F 54.0 °F 100% 29.92 in 0.2 mi WSW 8.1 mph 17.3 mph N/A Fog Fog
11:53 AM 54.0 °F 54.0 °F 100% 29.92 in 0.2 mi SW 10.4 mph - N/A Fog Fog
12:24 PM 54.0 °F 54.0 °F 100% 29.91 in 0.5 mi SW 13.8 mph 20.7 mph N/A Fog Fog
12:53 PM 54.0 °F 54.0 °F 100% 29.92 in 1.2 mi WSW 13.8 mph 21.9 mph N/A   Overcast
1:53 PM 54.0 °F 54.0 °F 100% 29.91 in 3.0 mi SW 8.1 mph - N/A   Overcast
2:53 PM 53.1 °F 53.1 °F 100% 29.91 in 6.0 mi SSW 4.6 mph - N/A   Overcast
3:07 PM 53.1 °F 53.1 °F 100% 29.91 in 6.0 mi SW 5.8 mph - N/A   Overcast
3:53 PM 53.1 °F 52.0 °F 96% 29.89 in 7.0 mi SSE 9.2 mph - N/A   Scattered Clouds
4:29 PM 51.1 °F 50.0 °F 96% 29.87 in 6.0 mi South 13.8 mph - N/A   Partly Cloudy
4:53 PM 53.1 °F 51.1 °F 93% 29.88 in 7.0 mi South 15.0 mph 24.2 mph N/A   Partly Cloudy
5:53 PM 55.9 °F 53.1 °F 90% 29.91 in 9.0 mi SSW 16.1 mph 23.0 mph N/A   Partly Cloudy
6:53 PM 54.0 °F 50.0 °F 86% 29.91 in 8.0 mi SSW 15.0 mph 23.0 mph N/A   Scattered Clouds
7:53 PM 59.0 °F 52.0 °F 78% 29.96 in 10.0 mi West 5.8 mph - 0.00 in   Scattered Clouds
8:53 PM 60.1 °F 53.1 °F 78% 29.98 in 10.0 mi WSW 6.9 mph - N/A   Clear
9:53 PM 57.0 °F 52.0 °F 83% 30.00 in 10.0 mi WSW 8.1 mph - N/A   Clear
10:53 PM 55.0 °F 51.1 °F 86% 29.99 in 10.0 mi SW 5.8 mph - N/A   Clear
11:53 PM 55.9 °F 52.0 °F 87% 30.00 in 10.0 mi WSW 8.1 mph - N/A   Overcast